Location: Dittelspoint
(48.7198°N, 10.7214°E)
Time: 21:28:30
(UTC+00:00)

RESURS DK-1 - Pass Details

Date: 09 April 2020
Orbit: 556 x 561 km, 69.9° (Epoch: 22 May)

Event Time Altitude Azimuth Distance (km) Brightness Sun altitude
Rises 19:06:21 0° 338° (NNW) 2,763 6.7 -11.1°
Reaches altitude 10° 19:09:07 10° 357° (N) 1,863 5.4 -11.5°
Maximum altitude 19:12:08 19° 44° (NE) 1,366 4.2 -11.9°
Enters shadow 19:14:23 13° 82° (E) 1,654 4.3 -12.3°
